C/2021 G2 ( ATLAS )

Japanese version
Home page
Updated on July 18, 2024

---------------------------------------------------------------------

* Profile

Discovery Date April 11, 2021
Magnitude 19.3 mag
Discoverer Asteroid Terrestrial-Impact Last Alert System (ATLAS) search program

* Pictures

* Orbital Elements

Epoch 2024 Mar. 31.0 TT = JDT 2460400.5
T 2024 Sept.  9.30572 TT                                Rudenko
q   4.9823031            (2000.0)            P               Q
z  +0.0000084      Peri.  343.29029     -0.84709776     +0.20067120
 +/-0.0000006      Node   221.09415     -0.36017153     -0.89765604
e   0.9999581      Incl.   48.47457     -0.39077085     +0.39235788
>From 949 observations 2021 Sept. 29-2024 Feb. 25, mean residual 0".3.

* Finding Charts

* Magnitudes Graph

        m1 = 3.5 + 5 log d + 10.0 log r

---------------------------------------------------------------------

The orbital elements are published on M.P.E.C. 2024-D126.
The charts are made with StellaNavigator Ver.10 (AstroArts).
The magnitudes graphs are made with Comet for Windows.

---------------------------------------------------------------------

Copyright(C) Seiichi Yoshida (comet@aerith.net). All rights reserved.